• In Hungary
  • List of Countries
  • For 7 days
  • Water Temperature
  • Satellite Maps
  • Weather Map
  • News
  • Weather Widgets
  • user-avatar
    Login

    Hourly Weather Igls

    Today, 17 December, Sunday

    Time Temperature Precipitation Wind Pressure Humidity
    00:00 -5°C° 0.4 mm 2 mps 682 mmHg 95%
    01:00 -5°C° 0 mm 2 mps 682 mmHg 94%
    02:00 -5°C° 0.4 mm 2 mps 682 mmHg 94%
    03:00 -5°C° 0.4 mm 2 mps 682 mmHg 94%
    04:00 -5°C° 0.4 mm 2 mps 682 mmHg 94%
    05:00 -5°C° 0.4 mm 2 mps 683 mmHg 94%
    06:00 -5°C° 0.4 mm 2 mps 683 mmHg 94%
    07:00 -5°C° 0.4 mm 2 mps 683 mmHg 94%
    08:00 -5°C° 0.5 mm 2 mps 684 mmHg 94%
    09:00 -4°C° 0.5 mm 2 mps 684 mmHg 93%
    10:00 -4°C° 0.5 mm 2 mps 685 mmHg 93%
    11:00 -3°C° 0.6 mm 2 mps 685 mmHg 92%
    12:00 -3°C° 0.6 mm 2 mps 685 mmHg 91%
    13:00 -3°C° 0.6 mm 2 mps 685 mmHg 90%
    14:00 -3°C° 0.4 mm 2 mps 685 mmHg 91%
    15:00 -4°C° 0.4 mm 2 mps 686 mmHg 92%
    16:00 -4°C° 0.4 mm 2 mps 686 mmHg 93%
    17:00 -5°C° 0.2 mm 2 mps 686 mmHg 94%
    18:00 -6°C° 0.2 mm 2 mps 687 mmHg 94%
    19:00 -7°C° 0.2 mm 2 mps 687 mmHg 95%
    20:00 -8°C° 0 mm 2 mps 687 mmHg 94%
    21:00 -9°C° 0 mm 2 mps 687 mmHg 93%
    22:00 -10°C° 0 mm 2 mps 688 mmHg 92%
    23:00 -10°C° 0 mm 2 mps 688 mmHg 91%

    Tomorrow, 18 December, Monday

    Time Temperature Precipitation Wind Pressure Humidity
    00:00 -10°C° 0 mm 2 mps 687 mmHg 89%
    01:00 -12°C° 0 mm 2 mps 687 mmHg 88%
    02:00 -12°C° 0 mm 2 mps 687 mmHg 86%
    03:00 -12°C° 0 mm 2 mps 687 mmHg 85%
    04:00 -12°C° 0 mm 2 mps 687 mmHg 83%
    05:00 -10°C° 0 mm 2 mps 686 mmHg 81%
    06:00 -9°C° 0 mm 2 mps 686 mmHg 80%
    07:00 -8°C° 0 mm 2 mps 686 mmHg 79%
    08:00 -6°C° 0.1 mm 1 mps 686 mmHg 80%
    09:00 -4°C° 0.1 mm 1 mps 686 mmHg 81%
    10:00 -2°C° 0.1 mm 1 mps 686 mmHg 82%
    11:00 -2°C° 0.3 mm 1 mps 685 mmHg 84%
    12:00 -1°C° 0.3 mm 1 mps 685 mmHg 85%
    13:00 0°C° 0.3 mm 1 mps 685 mmHg 87%
    14:00 0°C° 0.5 mm 1 mps 685 mmHg 89%
    15:00 0°C° 0.5 mm 1 mps 685 mmHg 92%
    16:00 0°C° 0.5 mm 1 mps 685 mmHg 94%
    17:00 0°C° 0.4 mm 1 mps 685 mmHg 94%
    18:00 -1°C° 0.4 mm 1 mps 686 mmHg 95%
    19:00 -1°C° 0.4 mm 1 mps 686 mmHg 95%
    20:00 -1°C° 0.4 mm 1 mps 687 mmHg 95%
    21:00 -1°C° 0.4 mm 1 mps 687 mmHg 95%
    22:00 -3°C° 0.4 mm 2 mps 688 mmHg 95%
    23:00 -3°C° 0.4 mm 2 mps 688 mmHg 95%

    Day after tomorrow, 19 December, Tuesday

    Time Temperature Precipitation Wind Pressure Humidity
    00:00 -3°C° 0.4 mm 2 mps 688 mmHg 95%
    01:00 -3°C° 0.4 mm 2 mps 689 mmHg 95%
    02:00 -3°C° 0.4 mm 2 mps 689 mmHg 95%
    03:00 -3°C° 0.4 mm 2 mps 689 mmHg 95%
    04:00 -3°C° 0.4 mm 2 mps 689 mmHg 95%
    05:00 -3°C° 0.5 mm 2 mps 690 mmHg 95%
    06:00 -3°C° 0.5 mm 2 mps 690 mmHg 96%
    07:00 -3°C° 0.5 mm 2 mps 690 mmHg 96%
    08:00 -3°C° 0.4 mm 2 mps 691 mmHg 95%
    09:00 -2°C° 0.4 mm 2 mps 691 mmHg 95%
    10:00 -2°C° 0.4 mm 2 mps 691 mmHg 94%
    11:00 -1°C° 0.3 mm 2 mps 691 mmHg 93%
    12:00 -1°C° 0.3 mm 2 mps 691 mmHg 93%
    13:00 +1°C° 0.3 mm 2 mps 691 mmHg 92%
    14:00 -1°C° 0.2 mm 2 mps 691 mmHg 93%
    15:00 -1°C° 0.2 mm 2 mps 691 mmHg 94%
    16:00 -2°C° 0.2 mm 2 mps 691 mmHg 94%
    17:00 -2°C° 0.1 mm 2 mps 692 mmHg 95%
    18:00 -3°C° 0.1 mm 2 mps 692 mmHg 95%
    19:00 -4°C° 0.1 mm 2 mps 692 mmHg 95%
    20:00 -3°C° 0.5 mm 2 mps 692 mmHg 95%
    21:00 -3°C° 0.5 mm 2 mps 692 mmHg 95%
    22:00 -3°C° 0.5 mm 2 mps 691 mmHg 95%
    23:00 -3°C° 0.9 mm 2 mps 691 mmHg 95%

    20 December, Wednesday

    Time Temperature Precipitation Wind Pressure Humidity
    00:00 -3°C° 0.9 mm 2 mps 691 mmHg 95%
    01:00 -3°C° 0.9 mm 2 mps 691 mmHg 95%
    02:00 -3°C° 0.9 mm 2 mps 690 mmHg 95%
    03:00 -2°C° 0.9 mm 2 mps 690 mmHg 95%
    04:00 -2°C° 0.9 mm 2 mps 690 mmHg 95%
    05:00 -2°C° 0.9 mm 2 mps 690 mmHg 95%
    06:00 -2°C° 0.9 mm 2 mps 690 mmHg 95%
    07:00 -2°C° 0.9 mm 2 mps 690 mmHg 95%
    08:00 -2°C° 0.6 mm 2 mps 690 mmHg 95%
    09:00 -1°C° 0.6 mm 2 mps 691 mmHg 95%
    10:00 -1°C° 0.6 mm 2 mps 691 mmHg 94%
    11:00 +1°C° 0.2 mm 2 mps 691 mmHg 94%
    12:00 +2°C° 0.2 mm 2 mps 691 mmHg 93%
    13:00 +2°C° 0.2 mm 2 mps 691 mmHg 93%
    14:00 +2°C° 0.1 mm 2 mps 691 mmHg 93%
    15:00 +1°C° 0.1 mm 2 mps 691 mmHg 94%
    16:00 +1°C° 0.1 mm 2 mps 691 mmHg 94%
    17:00 -1°C° 0.1 mm 2 mps 691 mmHg 94%
    18:00 -1°C° 0.1 mm 2 mps 692 mmHg 93%
    19:00 -2°C° 0.1 mm 2 mps 692 mmHg 92%
    20:00 -1°C° 0.4 mm 2 mps 692 mmHg 92%
    21:00 -1°C° 0.4 mm 2 mps 693 mmHg 92%
    22:00 +1°C° 0.4 mm 2 mps 693 mmHg 92%
    23:00 +1°C° 1.1 mm 2 mps 693 mmHg 93%

    21 December, Thursday

    Time Temperature Precipitation Wind Pressure Humidity
    00:00 +2°C° 1.1 mm 2 mps 693 mmHg 94%
    01:00 +2°C° 1.1 mm 2 mps 693 mmHg 95%
    02:00 +3°C° 1.3 mm 2 mps 693 mmHg 95%
    03:00 +3°C° 1.3 mm 2 mps 693 mmHg 95%
    04:00 +3°C° 1.3 mm 2 mps 693 mmHg 95%
    05:00 +3°C° 1.7 mm 2 mps 693 mmHg 95%
    06:00 +4°C° 1.7 mm 2 mps 693 mmHg 96%
    07:00 +4°C° 1.7 mm 2 mps 693 mmHg 96%
    08:00 +4°C° 1.2 mm 2 mps 693 mmHg 96%
    09:00 +4°C° 1.3 mm 2 mps 693 mmHg 96%
    10:00 +5°C° 1.3 mm 2 mps 693 mmHg 96%
    11:00 +5°C° 1 mm 2 mps 693 mmHg 97%
    12:00 +5°C° 1 mm 2 mps 693 mmHg 97%
    13:00 +5°C° 1 mm 2 mps 693 mmHg 98%
    14:00 +5°C° 0.7 mm 2 mps 693 mmHg 98%
    15:00 +5°C° 0.7 mm 2 mps 693 mmHg 97%
    16:00 +5°C° 0.7 mm 2 mps 693 mmHg 96%
    17:00 +5°C° 0.5 mm 2 mps 693 mmHg 96%
    18:00 +5°C° 0.5 mm 2 mps 693 mmHg 96%
    19:00 +4°C° 0.5 mm 2 mps 693 mmHg 96%
    20:00 +4°C° 0.6 mm 2 mps 693 mmHg 96%
    21:00 +4°C° 0.6 mm 2 mps 693 mmHg 95%
    22:00 +5°C° 0.6 mm 2 mps 692 mmHg 95%
    23:00 +4°C° 0.4 mm 2 mps 692 mmHg 95%

    22 December, Friday

    Time Temperature Precipitation Wind Pressure Humidity
    00:00 +4°C° 0.4 mm 2 mps 692 mmHg 95%
    01:00 +4°C° 0.4 mm 2 mps 691 mmHg 95%
    02:00 +4°C° 0.1 mm 2 mps 691 mmHg 95%
    03:00 +4°C° 0.1 mm 2 mps 691 mmHg 95%
    04:00 +3°C° 0.1 mm 2 mps 690 mmHg 95%
    05:00 +4°C° 0.2 mm 2 mps 690 mmHg 95%
    06:00 +4°C° 0.2 mm 2 mps 690 mmHg 95%
    07:00 +4°C° 0.2 mm 2 mps 689 mmHg 95%
    08:00 +4°C° 0.4 mm 2 mps 689 mmHg 95%
    09:00 +4°C° 0.4 mm 2 mps 689 mmHg 96%
    10:00 +4°C° 0.4 mm 2 mps 689 mmHg 96%
    11:00 +4°C° 0.8 mm 2 mps 689 mmHg 96%
    12:00 +3°C° 0.8 mm 3 mps 689 mmHg 96%
    13:00 +3°C° 0.8 mm 3 mps 689 mmHg 96%
    14:00 +3°C° 0.9 mm 3 mps 689 mmHg 96%
    15:00 +2°C° 0.9 mm 3 mps 690 mmHg 96%
    16:00 +2°C° 0.9 mm 3 mps 690 mmHg 96%
    17:00 +1°C° 0.5 mm 3 mps 691 mmHg 96%
    18:00 0°C° 0.5 mm 3 mps 691 mmHg 96%
    19:00 -1°C° 0.5 mm 3 mps 692 mmHg 96%
    20:00 -1°C° 0.3 mm 2 mps 692 mmHg 96%
    21:00 -2°C° 0.3 mm 2 mps 692 mmHg 96%
    22:00 -2°C° 0.3 mm 2 mps 692 mmHg 96%
    23:00 -2°C° 0.3 mm 2 mps 692 mmHg 95%
    Show more